カタログに戻る

THORAD DELTA 1 DEB

運用中LEO
NORAD 8784·DEBRIS·🇺🇸 United States

打ち上げ Nov 15, 1974 から Vandenberg Space Force Base

Loading…

次のパス (今後24時間)

TLE

最新Source: Space-Track

元期: Sep 13, 2026, 03:07 UTC

1  8784U 74089DL  26256.13026169  .00010346  00000-0  14448-1 0  9990
2  8784 100.9987 311.8031 0200591 355.4316  59.8963 13.49850535544235

AllMySatでTHORAD DELTA 1 DEBをリアルタイム追跡

Download on the App Store